Kenora, Ontario

2:13 PM CST on February 14, 2016 (GMT -0600)
Kenora

Weather History for CYQK - January, 2012

Change the Weather History Date:

Sunday, January 29, 2012

  Actual Average Record
Temperature  
Mean Temperature -1 °F -  
Max Temperature 7 °F 16 °F - ()
Min Temperature -9 °F -3 °F - ()
Degree Days  
Heating Degree Days 66    
Moisture  
Dew Point -9 °F    
Average Humidity 68    
Maximum Humidity 78    
Minimum Humidity 51    
Precipitation  
Precipitation 0.00 in 0.03 in - ()
Sea Level Pressure  
Sea Level Pressure 30.11 in    
Wind  
Wind Speed 7 mph ()    
Max Wind Speed 13 mph    
Max Gust Speed -    
Visibility 15.0 miles    
Events      
T = Trace of Precipitation, MM = Missing Value Source: Averaged Metar Reports

Daily Weather History Graph

Daily Weather History Graph

Search for Another Location

Airport or City:

Trip Planner

Search our weather history database for the weather conditions in past years. The results will help you decide how hot, cold, wet, or windy it might be!

Date:

Astronomy

Jan. 29, 2012 Rise Set
Actual Time 7:55 AM CST 5:06 PM CST
Civil Twilight 7:19 AM CST 5:41 PM CST
Nautical Twilight 6:41 AM CST 6:20 PM CST
Astronomical Twilight 6:03 AM CST 6:58 PM CST
Moon 10:02 AM CST (1/29) No Moon Set
Length of Visible Light 10h 21m
Length of Day
9h 11m
Waxing Crescent, 37% of the Moon is Illuminated
Jan 29
Waxing Crescent
Jan 30
First Quarter
Feb 7
Full
Feb 14
Last Quarter
Feb 21
New

Hourly Weather History & Observations

Time (CST) Temp. Windchill Dew Point Humidity Pressure Visibility Wind Dir Wind Speed Gust Speed Precip Events Conditions
12:00 AM -2 °F - -8 °F 62% 30.05 in 15 mi West 11.5 mph - -   Scattered Clouds
12:00 AM -2.2 °F -20.7 °F -7.6 °F 78% 30.05 in 15.0 mi WNW 12.7 mph - N/A   Scattered Clouds
1:00 AM -4.0 °F -20.2 °F -9.4 °F 78% 30.06 in 15.0 mi WNW 9.2 mph - N/A   Scattered Clouds
3:00 AM -5.8 °F -22.4 °F -11.2 °F 77% 30.09 in 15.0 mi NW 9.2 mph - N/A   Scattered Clouds
4:00 AM -5.8 °F -21.2 °F -11.2 °F 77% 30.11 in 15.0 mi WNW 8.1 mph - N/A   Partly Cloudy
5:00 AM -7.6 °F -23.4 °F -13.0 °F 77% 30.12 in 15.0 mi WNW 8.1 mph - N/A   Partly Cloudy
6:00 AM -8 °F - -14 °F 65% 30.14 in 15 mi WNW 11.5 mph - -   Scattered Clouds
7:00 AM -9.4 °F -22.7 °F -14.8 °F 77% 30.14 in 15.0 mi NW 5.8 mph - N/A   Clear
8:00 AM -9.4 °F -20.9 °F -14.8 °F 77% 30.16 in 15.0 mi WNW 4.6 mph - N/A   Clear
9:00 AM -7.6 °F -20.6 °F -13.0 °F 77% 30.17 in 15.0 mi WNW 5.8 mph - N/A   Clear
10:00 AM -4.0 °F -12.4 °F -9.4 °F 78% 30.17 in 15.0 mi NW 3.5 mph - N/A   Partly Cloudy
11:00 AM -2.2 °F - -9.4 °F 71% 30.19 in 15.0 mi NW 2.3 mph - N/A   Partly Cloudy
12:00 PM 1 °F - -7 °F 55% 30.17 in 15 mi NW 2.3 mph - -   Scattered Clouds
12:00 PM 1.4 °F -6.2 °F -7.6 °F 66% 30.17 in 15.0 mi NNW 3.5 mph - N/A   Partly Cloudy
1:00 PM 3.2 °F - -5.8 °F 66% 30.16 in 15.0 mi North 2.3 mph - N/A   Scattered Clouds
2:00 PM 6.8 °F - -5.8 °F 56% 30.14 in 15.0 mi SSW 2.3 mph - N/A   Scattered Clouds
3:00 PM 6.8 °F -2.0 °F -5.8 °F 56% 30.12 in 15.0 mi SSW 4.6 mph - N/A   Scattered Clouds
4:00 PM 5.0 °F -4.1 °F -5.8 °F 61% 30.12 in 15.0 mi SSW 4.6 mph - N/A   Scattered Clouds
5:00 PM 3.2 °F - -5.8 °F 66% 30.11 in 15.0 mi Calm Calm - N/A   Partly Cloudy
6:00 PM 2 °F - -7 °F 51% 30.10 in 15 mi South 2.3 mph - -   Scattered Clouds
6:00 PM 1.4 °F -6.2 °F -7.6 °F 66% 30.10 in 15.0 mi SSE 3.5 mph - N/A   Scattered Clouds
7:00 PM 1.4 °F -13.5 °F -7.6 °F 66% 30.08 in 15.0 mi SSE 9.2 mph - N/A   Scattered Clouds
8:00 PM -0.4 °F -15.7 °F -7.6 °F 72% 30.07 in 15.0 mi South 9.2 mph - N/A   Scattered Clouds
9:00 PM 1.4 °F -13.5 °F -7.6 °F 66% 30.04 in 15.0 mi SSE 9.2 mph - N/A   Scattered Clouds
10:00 PM 1.4 °F -12.5 °F -7.6 °F 66% 30.02 in 15.0 mi SSE 8.1 mph - N/A   Scattered Clouds
11:00 PM 3.2 °F -11.3 °F -7.6 °F 61% 30.01 in 15.0 mi SSE 9.2 mph - N/A   Scattered Clouds